Regional Weather Roundup
Issued by NWS Goodland, KS

Home | Current Version | Previous Version | Graphics & Text | Print | Product List | Glossary On
Versions: 1 2 3 4 5 6 7 8 9 10 11 12 13 14 15 16 17 18 19 20 21 22 23 24 25 26 27 28 29 30 31 32 33 34 35 36 37 38 39 40 41 42 43 44 45 46 47 48 49 50
000
ASUS43 KGLD 191708
RWRGLD

GOODLAND FORECAST AREA HOURLY WEATHER ROUNDUP
NATIONAL WEATHER SERVICE GOODLAND KS
1100 AM MDT SUN OCT 19 2014

...OFFICIAL OBSERVATIONS...

CITY           SKY/WX    TMP DP  RH WIND       PRES   REMARKS
GOODLAND KS    SUNNY     64  46  52 N7        30.04F
HILL CITY KS   SUNNY     65  46  50 SW13      30.04F
IMPERIAL NEB   SUNNY     63  44  50 N7        30.04S
MCCOOK NEB     SUNNY     60  45  57 NW6       30.03F
AKRON CO       SUNNY     63  39  41 N9        30.09S
BURLINGTON CO  SUNNY     67  43  41 N8        30.06S
LIMON CO       MOSUNNY   67  34  29 N17       30.13R
$$

...UNOFFICIAL OBSERVATIONS...

CITY           SKY/WX    TMP DP  RH WIND       PRES   REMARKS
COLBY KS       SUNNY     64  52  63 W5        30.04S
GOVE KS          N/A     64  32  30 MISG        N/A
NORTON KS      SUNNY     64  41  42 SW7       30.03S
SHARON SPRINGS   N/A     64  50  61 CALM        N/A
TRENTON NEB      N/A     61  32  33 N6          N/A
KIT CARSON CO    N/A     70  44  38 N8          N/A
YUMA CO          N/A     66  45  46 NW7         N/A
$$


USA.gov is the U.S. government's official web portal to all federal, state and local government web resources and services.